This is the latest recevied weather packets stored in our database for station/object KC3SOZ. If no packets are shown the sender has not sent any weather packets the latest 10 day(s).
| Time | Temp. | Humidity | Pressure | Rain* | Wind** | Luminosity | Snow |
|---|---|---|---|---|---|---|---|
| 1777813603 | 7.22° C | 65% | 1016.4 hPa | 0 mm | - | 420 W/m² | - |
| 1777813301 | 6.67° C | 68% | 1016.6 hPa | 0 mm | - | 400 W/m² | - |
| 1777812998 | 6.67° C | 67% | 1016.4 hPa | 0 mm | - | 179 W/m² | - |
| 1777812696 | 6.67° C | 66% | 1016.3 hPa | 0 mm | - | 367 W/m² | - |
| 1777812392 | 6.11° C | 68% | 1016.6 hPa | 0 mm | - | 343 W/m² | - |
| 1777812091 | 6.11° C | 70% | 1016.5 hPa | 0 mm | - | 325 W/m² | - |
| 1777811788 | 6.11° C | 70% | 1016.5 hPa | 0 mm | - | 311 W/m² | - |
| 1777811485 | 6.11° C | 70% | 1016.5 hPa | 0 mm | - | 292 W/m² | - |
| 1777811181 | 5.56° C | 69% | 1016.3 hPa | 0 mm | - | 274 W/m² | - |
| 1777810879 | 6.11° C | 69% | 1016.4 hPa | 0 mm | - | 124 W/m² | - |
| 1777810575 | 5.56° C | 70% | 1016.4 hPa | 0 mm | - | 248 W/m² | - |
| 1777810273 | 5.56° C | 70% | 1016.2 hPa | 0 mm | - | 237 W/m² | - |
| 1777809968 | 5.56° C | 73% | 1016.1 hPa | 0 mm | - | 163 W/m² | - |
| 1777809666 | 5.56° C | 73% | 1016.2 hPa | 0 mm | - | 153 W/m² | - |
| 1777809364 | 5° C | 72% | 1016 hPa | 0 mm | - | 168 W/m² | - |
| 1777809061 | 5° C | 72% | 1016.2 hPa | 0 mm | - | 144 W/m² | - |
| 1777808758 | 4.44° C | 74% | 1016.3 hPa | 0 mm | - | 119 W/m² | - |
| 1777808455 | 4.44° C | 74% | 1016.2 hPa | 0 mm | - | 79 W/m² | - |
| 1777808153 | 4.44° C | 74% | 1016.1 hPa | 0 mm | - | 66 W/m² | - |
| 1777807851 | 4.44° C | 74% | 1016.2 hPa | 0 mm | - | 77 W/m² | - |
| 1777807549 | 3.89° C | 74% | 1016.1 hPa | 0 mm | - | 62 W/m² | - |
| 1777807245 | 3.89° C | 74% | 1015.9 hPa | 0 mm | - | 54 W/m² | - |
| 1777806941 | 3.89° C | 74% | 1015.9 hPa | 0 mm | - | 51 W/m² | - |
| 1777806638 | 3.89° C | 74% | 1015.8 hPa | 0 mm | - | 40 W/m² | - |
| 1777806333 | 3.89° C | 74% | 1015.9 hPa | 0 mm | - | 49 W/m² | - |
* Rain latest hour (hover to see other rain measurements)
** Current wind speed in m/s (hover to see current wind gust speed)